| time (UTC) | temp F | wind direction | speed MPH | gust MPH | rain 1hr in | rain 24hr in | rain mn in | humidity % | barometer mb |
| 20260905163048 | 89 | 5 | 3.0 | 10.0 | 0.00 | 0.00 | 0.00 | 77 | 1011.7 |
| 20260905162548 | 89 | 355 | 4.0 | 9.0 | 0.00 | 0.00 | 0.00 | 77 | 1011.6 |
| 20260905162046 | 88 | 350 | 4.0 | 9.0 | 0.00 | 0.00 | 0.00 | 76 | 1011.7 |
| 20260905161546 | 89 | 348 | 4.0 | 8.0 | 0.00 | 0.00 | 0.00 | 76 | 1011.6 |
| 20260905161046 | 89 | 360 | 4.0 | 9.0 | 0.00 | 0.00 | 0.00 | 77 | 1011.6 |
| 20260905160545 | 89 | 334 | 5.0 | 9.0 | 0.00 | 0.00 | 0.00 | 76 | 1011.5 |
| 20260905160046 | 89 | 360 | 3.0 | 8.0 | 0.00 | 0.00 | 0.00 | 78 | 1011.4 |
| 20260905155545 | 89 | 15 | 3.0 | 8.0 | 0.00 | 0.00 | 0.00 | 78 | 1011.4 |
| 20260905155043 | 89 | 10 | 3.0 | 6.0 | 0.00 | 0.00 | 0.00 | 79 | 1011.5 |
| 20260905154544 | 88 | 319 | 3.0 | 7.0 | 0.00 | 0.00 | 0.00 | 78 | 1011.6 |
| 20260905154043 | 88 | 5 | 3.0 | 7.0 | 0.00 | 0.00 | 0.00 | 79 | 1011.6 |
| 20260905153541 | 88 | 333 | 2.0 | 7.0 | 0.00 | 0.00 | 0.00 | 79 | 1011.5 |
| 20260905153040 | 87 | 12 | 3.0 | 7.0 | 0.00 | 0.00 | 0.00 | 79 | 1011.4 |
| 20260905152541 | 87 | 296 | 3.0 | 7.0 | 0.00 | 0.00 | 0.00 | 81 | 1011.4 |
| 20260905152040 | 87 | 47 | 1.0 | 7.0 | 0.00 | 0.00 | 0.00 | 82 | 1011.4 |
| 20260905151538 | 86 | 30 | 4.0 | 7.0 | 0.00 | 0.00 | 0.00 | 80 | 1011.2 |
| 20260905151036 | 86 | 36 | 3.0 | 5.0 | 0.00 | 0.00 | 0.00 | 82 | 1011.3 |
| 20260905150537 | 86 | 30 | 3.0 | 6.0 | 0.00 | 0.00 | 0.00 | 81 | 1011.3 |
| 20260905150037 | 86 | 360 | 2.0 | 6.0 | 0.00 | 0.00 | 0.00 | 80 | 1011.3 |
| 20260905145537 | 86 | 355 | 3.0 | 6.0 | 0.00 | 0.00 | 0.00 | 80 | 1011.3 |
| 20260905145036 | 86 | 13 | 3.0 | 6.0 | 0.00 | 0.00 | 0.00 | 80 | 1011.3 |
| 20260905144537 | 87 | 5 | 4.0 | 7.0 | 0.00 | 0.00 | 0.00 | 79 | 1011.2 |
| 20260905144035 | 86 | 335 | 3.0 | 7.0 | 0.00 | 0.00 | 0.00 | 80 | 1011.1 |
| 20260905143540 | 86 | 360 | 2.0 | 6.0 | 0.00 | 0.00 | 0.00 | 81 | 1011.1 |
| 20260905143035 | 86 | 342 | 2.0 | 5.0 | 0.00 | 0.00 | 0.00 | 81 | 1011.1 |
| 20260905142535 | 86 | 355 | 2.0 | 6.0 | 0.00 | 0.00 | 0.00 | 80 | 1011.0 |
| 20260905142033 | 86 | 5 | 3.0 | 6.0 | 0.00 | 0.00 | 0.00 | 81 | 1011.0 |
| 20260905141532 | 86 | 15 | 2.0 | 5.0 | 0.00 | 0.00 | 0.00 | 81 | 1010.9 |
| 20260905141033 | 85 | 336 | 0.0 | 4.0 | 0.00 | 0.00 | 0.00 | 83 | 1011.0 |
| 20260905140530 | 85 | 288 | 1.0 | 4.0 | 0.00 | 0.00 | 0.00 | 83 | 1011.1 |
| 20260905140029 | 84 | 349 | 0.0 | 3.0 | 0.00 | 0.00 | 0.00 | 86 | 1011.1 |
| 20260905135529 | 83 | 288 | 0.0 | 3.0 | 0.00 | 0.00 | 0.00 | 86 | 1011.3 |
| 20260905135027 | 83 | 309 | 0.0 | 3.0 | 0.00 | 0.00 | 0.00 | 86 | 1011.4 |
| 20260905134530 | 83 | 289 | 0.0 | 4.0 | 0.00 | 0.00 | 0.00 | 87 | 1011.6 |
| 20260905134025 | 82 | 269 | 0.0 | 4.0 | 0.00 | 0.00 | 0.00 | 86 | 1011.5 |
| 20260905133523 | 82 | 242 | 1.0 | 4.0 | 0.00 | 0.00 | 0.00 | 87 | 1011.3 |
| 20260905133022 | 82 | 249 | 0.0 | 0.0 | 0.00 | 0.00 | 0.00 | 90 | 1011.2 |
| 20260905132520 | 81 | 249 | 0.0 | 0.0 | 0.00 | 0.00 | 0.00 | 90 | 1011.2 |
| 20260905132019 | 80 | 220 | 0.0 | 0.0 | 0.00 | 0.00 | 0.00 | 92 | 1011.0 |
| 20260905131518 | 79 | 220 | 0.0 | 1.0 | 0.00 | 0.00 | 0.00 | 93 | 1011.0 |
| 20260905131018 | 79 | 211 | 0.0 | 2.0 | 0.00 | 0.00 | 0.00 | 95 | 1011.0 |
| 20260905130515 | 78 | 68 | 0.0 | 2.0 | 0.00 | 0.00 | 0.00 | 96 | 1010.9 |
| 20260905130014 | 78 | 68 | 0.0 | 1.0 | 0.00 | 0.00 | 0.00 | 96 | 1010.8 |
| 20260905125512 | 77 | 68 | 0.0 | 2.0 | 0.00 | 0.00 | 0.00 | 96 | 1010.8 |
| 20260905125013 | 76 | 68 | 0.0 | 2.0 | 0.00 | 0.00 | 0.00 | 96 | 1010.8 |
| 20260905124516 | 75 | 24 | 0.0 | 1.0 | 0.00 | 0.00 | 0.00 | 96 | 1010.8 |
| 20260905124012 | 75 | 24 | 0.0 | 0.0 | 0.00 | 0.00 | 0.00 | 96 | 1010.7 |
| 20260905123512 | 75 | 24 | 0.0 | 0.0 | 0.00 | 0.00 | 0.00 | 96 | 1010.7 |
| 20260905123012 | 74 | 24 | 0.0 | 0.0 | 0.00 | 0.00 | 0.00 | 95 | 1010.7 |
| 20260905122512 | 74 | 24 | 0.0 | 0.0 | 0.00 | 0.00 | 0.00 | 95 | 1010.8 |
| 20260905122012 | 74 | 24 | 0.0 | 0.0 | 0.00 | 0.00 | 0.00 | 96 | 1010.7 |
| 20260905121512 | 74 | 24 | 0.0 | 0.0 | 0.00 | 0.00 | 0.00 | 95 | 1010.7 |
| 20260905121012 | 73 | 24 | 0.0 | 0.0 | 0.00 | 0.00 | 0.00 | 96 | 1010.7 |
| 20260905120512 | 73 | 24 | 0.0 | 0.0 | 0.00 | 0.00 | 0.00 | 95 | 1010.6 |
| 20260905120010 | 73 | 24 | 0.0 | 0.0 | 0.00 | 0.00 | 0.00 | 95 | 1010.6 |
| 20260905115511 | 73 | 24 | 0.0 | 0.0 | 0.00 | 0.00 | 0.00 | 95 | 1010.5 |
| 20260905115011 | 73 | 24 | 0.0 | 0.0 | 0.00 | 0.00 | 0.00 | 95 | 1010.5 |
| 20260905114510 | 73 | 24 | 0.0 | 0.0 | 0.00 | 0.00 | 0.00 | 95 | 1010.4 |
| 20260905114010 | 72 | 24 | 0.0 | 0.0 | 0.00 | 0.00 | 0.00 | 95 | 1010.4 |
| 20260905113510 | 72 | 24 | 0.0 | 0.0 | 0.00 | 0.00 | 0.00 | 95 | 1010.5 |
| 20260905113010 | 72 | 24 | 0.0 | 0.0 | 0.00 | 0.00 | 0.00 | 95 | 1010.6 |
| 20260905112510 | 72 | 24 | 0.0 | 0.0 | 0.00 | 0.00 | 0.00 | 94 | 1010.6 |
| 20260905112008 | 72 | 24 | 0.0 | 0.0 | 0.00 | 0.00 | 0.00 | 94 | 1010.5 |
| 20260905111513 | 72 | 24 | 0.0 | 0.0 | 0.00 | 0.00 | 0.00 | 94 | 1010.4 |
| 20260905111007 | 72 | 24 | 0.0 | 0.0 | 0.00 | 0.00 | 0.00 | 94 | 1010.3 |
| 20260905110507 | 72 | 24 | 0.0 | 0.0 | 0.00 | 0.00 | 0.00 | 94 | 1010.2 |
| 20260905110008 | 72 | 24 | 0.0 | 0.0 | 0.00 | 0.00 | 0.00 | 94 | 1010.2 |
| 20260905105511 | 72 | 24 | 0.0 | 0.0 | 0.00 | 0.00 | 0.00 | 94 | 1010.1 |
| 20260905105006 | 72 | 24 | 0.0 | 0.0 | 0.00 | 0.00 | 0.00 | 94 | 1010.2 |
| 20260905104506 | 73 | 24 | 0.0 | 0.0 | 0.00 | 0.00 | 0.00 | 94 | 1010.2 |
| 20260905104006 | 73 | 24 | 0.0 | 0.0 | 0.00 | 0.00 | 0.00 | 94 | 1010.3 |
| 20260905103506 | 73 | 24 | 0.0 | 0.0 | 0.00 | 0.00 | 0.00 | 94 | 1010.3 |
| 20260905103006 | 73 | 24 | 0.0 | 0.0 | 0.00 | 0.00 | 0.00 | 94 | 1010.3 |
| 20260905102505 | 73 | 24 | 0.0 | 0.0 | 0.00 | 0.00 | 0.00 | 94 | 1010.3 |
| 20260905102004 | 73 | 24 | 0.0 | 1.0 | 0.00 | 0.00 | 0.00 | 94 | 1010.4 |
| 20260905101505 | 73 | 24 | 0.0 | 1.0 | 0.00 | 0.00 | 0.00 | 94 | 1010.5 |
| 20260905101005 | 73 | 24 | 0.0 | 0.0 | 0.00 | 0.00 | 0.00 | 94 | 1010.4 |
| 20260905100504 | 73 | 24 | 0.0 | 0.0 | 0.00 | 0.00 | 0.00 | 94 | 1010.4 |
| 20260905100006 | 73 | 24 | 0.0 | 3.0 | 0.00 | 0.00 | 0.00 | 94 | 1010.4 |
| 20260905095504 | 73 | 24 | 0.0 | 3.0 | 0.00 | 0.00 | 0.00 | 94 | 1010.4 |
| 20260905095003 | 73 | 5 | 0.0 | 3.0 | 0.00 | 0.00 | 0.00 | 94 | 1010.3 |
| 20260905094503 | 73 | 277 | 0.0 | 0.0 | 0.00 | 0.00 | 0.00 | 93 | 1010.1 |
| 20260905094002 | 73 | 277 | 0.0 | 0.0 | 0.00 | 0.00 | 0.00 | 93 | 1010.1 |
| 20260905093502 | 73 | 277 | 0.0 | 0.0 | 0.00 | 0.00 | 0.00 | 93 | 1010.1 |
| 20260905093001 | 73 | 277 | 0.0 | 0.0 | 0.00 | 0.00 | 0.00 | 93 | 1010.1 |
| 20260905092501 | 74 | 277 | 0.0 | 0.0 | 0.00 | 0.00 | 0.00 | 94 | 1010.1 |
| 20260905092100 | 74 | 277 | 0.0 | 0.0 | 0.00 | 0.00 | 0.00 | 93 | 1010.2 |
| 20260905091601 | 74 | 277 | 0.0 | 0.0 | 0.00 | 0.00 | 0.00 | 93 | 1010.2 |
| 20260905091102 | 74 | 277 | 0.0 | 0.0 | 0.00 | 0.00 | 0.00 | 94 | 1010.1 |
| 20260905090559 | 74 | 277 | 0.0 | 1.0 | 0.00 | 0.00 | 0.00 | 94 | 1010.2 |
| 20260905090132 | 74 | 277 | 0.0 | 1.0 | 0.00 | 0.00 | 0.00 | 94 | 1010.2 |
| 20260905085600 | 74 | 277 | 0.0 | 1.0 | 0.00 | 0.00 | 0.00 | 94 | 1010.2 |
| 20260905085100 | 74 | 277 | 0.0 | 1.0 | 0.00 | 0.00 | 0.00 | 94 | 1010.3 |
| 20260905084612 | 74 | 277 | 0.0 | 2.0 | 0.00 | 0.00 | 0.00 | 94 | 1010.2 |
| 20260905084059 | 74 | 277 | 1.0 | 2.0 | 0.00 | 0.00 | 0.00 | 94 | 1010.2 |
| 20260905083559 | 74 | 277 | 0.0 | 2.0 | 0.00 | 0.00 | 0.00 | 94 | 1010.2 |
| 20260905083059 | 74 | 277 | 0.0 | 0.0 | 0.00 | 0.00 | 0.00 | 94 | 1010.1 |
| 20260905082558 | 74 | 277 | 0.0 | 0.0 | 0.00 | 0.00 | 0.00 | 93 | 1010.1 |
| 20260905082057 | 74 | 277 | 0.0 | 0.0 | 0.00 | 0.00 | 0.00 | 93 | 1010.1 |
| 20260905081557 | 74 | 277 | 0.0 | 0.0 | 0.00 | 0.00 | 0.00 | 93 | 1010.1 |
| 20260905081056 | 74 | 277 | 0.0 | 0.0 | 0.00 | 0.00 | 0.00 | 94 | 1010.1 |
| 20260905080558 | 74 | 277 | 0.0 | 0.0 | 0.00 | 0.00 | 0.00 | 94 | 1010.1 |
| 20260905080100 | 74 | 277 | 0.0 | 0.0 | 0.00 | 0.00 | 0.00 | 94 | 1010.2 |
| 20260905075557 | 74 | 277 | 0.0 | 0.0 | 0.00 | 0.00 | 0.00 | 93 | 1010.1 |
| 20260905075056 | 74 | 277 | 0.0 | 1.0 | 0.00 | 0.00 | 0.00 | 93 | 1010.1 |
| 20260905074556 | 74 | 277 | 0.0 | 1.0 | 0.00 | 0.00 | 0.00 | 93 | 1010.1 |
| 20260905074055 | 74 | 277 | 0.0 | 0.0 | 0.00 | 0.00 | 0.00 | 92 | 1010.2 |
| 20260905073555 | 74 | 277 | 0.0 | 0.0 | 0.00 | 0.00 | 0.00 | 92 | 1010.1 |
| 20260905073054 | 75 | 277 | 0.0 | 0.0 | 0.00 | 0.00 | 0.00 | 92 | 1010.1 |
| 20260905072553 | 75 | 277 | 0.0 | 0.0 | 0.00 | 0.00 | 0.00 | 92 | 1010.2 |
| 20260905072052 | 75 | 277 | 0.0 | 0.0 | 0.00 | 0.00 | 0.00 | 92 | 1010.3 |
| 20260905071551 | 75 | 277 | 0.0 | 0.0 | 0.00 | 0.00 | 0.00 | 92 | 1010.3 |
| 20260905071052 | 75 | 277 | 0.0 | 0.0 | 0.00 | 0.00 | 0.00 | 92 | 1010.2 |
| 20260905070553 | 76 | 277 | 0.0 | 0.0 | 0.00 | 0.00 | 0.00 | 92 | 1010.3 |
| 20260905070050 | 76 | 277 | 0.0 | 0.0 | 0.00 | 0.00 | 0.00 | 92 | 1010.3 |
| 20260905065549 | 76 | 277 | 0.0 | 0.0 | 0.00 | 0.00 | 0.00 | 92 | 1010.3 |
| 20260905065049 | 76 | 277 | 0.0 | 0.0 | 0.00 | 0.00 | 0.00 | 92 | 1010.2 |
| 20260905064549 | 76 | 277 | 0.0 | 0.0 | 0.00 | 0.00 | 0.00 | 92 | 1010.3 |
| 20260905064052 | 76 | 277 | 0.0 | 0.0 | 0.00 | 0.00 | 0.00 | 92 | 1010.3 |
| 20260905063548 | 76 | 277 | 0.0 | 0.0 | 0.00 | 0.00 | 0.00 | 93 | 1010.3 |
| 20260905063048 | 76 | 277 | 0.0 | 0.0 | 0.00 | 0.00 | 0.00 | 93 | 1010.4 |
| 20260905062548 | 76 | 277 | 0.0 | 1.0 | 0.00 | 0.00 | 0.00 | 93 | 1010.5 |
| 20260905062047 | 76 | 277 | 0.0 | 1.0 | 0.00 | 0.00 | 0.00 | 92 | 1010.5 |
| 20260905061549 | 76 | 277 | 0.0 | 1.0 | 0.00 | 0.00 | 0.00 | 92 | 1010.4 |
| 20260905061045 | 76 | 277 | 0.0 | 0.0 | 0.00 | 0.00 | 0.00 | 92 | 1010.4 |
| 20260905060544 | 77 | 277 | 0.0 | 0.0 | 0.00 | 0.00 | 0.00 | 92 | 1010.6 |
| 20260905060046 | 77 | 277 | 0.0 | 0.0 | 0.00 | 0.00 | 0.00 | 92 | 1010.6 |
| 20260905055543 | 77 | 277 | 0.0 | 0.0 | 0.00 | 0.00 | 0.00 | 92 | 1010.6 |
| 20260905055043 | 77 | 277 | 0.0 | 0.0 | 0.00 | 0.00 | 0.00 | 92 | 1010.6 |
| 20260905054543 | 77 | 277 | 0.0 | 0.0 | 0.00 | 0.00 | 0.00 | 92 | 1010.6 |
| 20260905054042 | 77 | 277 | 0.0 | 0.0 | 0.00 | 0.00 | 0.00 | 92 | 1010.6 |
| 20260905053542 | 77 | 277 | 0.0 | 0.0 | 0.00 | 0.00 | 0.00 | 92 | 1010.6 |
| 20260905053043 | 77 | 277 | 0.0 | 0.0 | 0.00 | 0.00 | 0.00 | 92 | 1010.6 |
| 20260905052540 | 77 | 277 | 0.0 | 0.0 | 0.00 | 0.00 | 0.00 | 92 | 1010.7 |
| 20260905052042 | 77 | 277 | 0.0 | 0.0 | 0.00 | 0.00 | 0.00 | 93 | 1010.8 |
| 20260905051538 | 77 | 277 | 0.0 | 0.0 | 0.00 | 0.00 | 0.00 | 93 | 1010.8 |
| 20260905051039 | 77 | 277 | 0.0 | 0.0 | 0.00 | 0.00 | 0.00 | 93 | 1010.8 |
| 20260905050538 | 77 | 277 | 0.0 | 0.0 | 0.00 | 0.00 | 0.00 | 94 | 1010.8 |
| 20260905050037 | 77 | 277 | 0.0 | 0.0 | 0.00 | 0.00 | 0.00 | 94 | 1010.8 |
| 20260905045536 | 77 | 277 | 0.0 | 0.0 | 0.00 | 0.00 | 0.00 | 93 | 1010.8 |
| 20260905045040 | 77 | 277 | 0.0 | 1.0 | 0.00 | 0.00 | 0.00 | 93 | 1010.9 |
| 20260905044537 | 77 | 277 | 0.0 | 2.0 | 0.00 | 0.00 | 0.00 | 94 | 1010.8 |
| 20260905044036 | 77 | 277 | 0.0 | 2.0 | 0.00 | 0.00 | 0.00 | 93 | 1010.9 |
| 20260905043536 | 77 | 277 | 0.0 | 0.0 | 0.00 | 0.00 | 0.00 | 94 | 1010.9 |
| 20260905043036 | 76 | 277 | 0.0 | 0.0 | 0.00 | 0.00 | 0.00 | 93 | 1010.9 |
| 20260905042535 | 76 | 277 | 0.0 | 0.0 | 0.00 | 0.00 | 0.00 | 93 | 1011.0 |
| 20260905042035 | 76 | 277 | 0.0 | 0.0 | 0.00 | 0.00 | 0.00 | 93 | 1011.0 |
| 20260905041547 | 76 | 277 | 0.0 | 0.0 | 0.00 | 0.00 | 0.00 | 93 | 1011.0 |
| 20260905041035 | 76 | 277 | 0.0 | 0.0 | 0.00 | 0.00 | 0.00 | 93 | 1011.0 |
| 20260905040535 | 76 | 277 | 0.0 | 0.0 | 0.00 | 0.00 | 0.00 | 93 | 1010.9 |
| 20260905040035 | 76 | 277 | 0.0 | 0.0 | 0.00 | 0.00 | 0.00 | 93 | 1011.0 |
| 20260905035534 | 76 | 277 | 0.0 | 0.0 | 0.00 | 0.00 | 0.00 | 93 | 1011.0 |
| 20260905035034 | 76 | 277 | 0.0 | 0.0 | 0.00 | 0.00 | 0.00 | 93 | 1011.0 |
| 20260905034539 | 76 | 277 | 0.0 | 0.0 | 0.00 | 0.00 | 0.00 | 93 | 1011.0 |
| 20260905034034 | 77 | 277 | 0.0 | 0.0 | 0.00 | 0.00 | 0.00 | 93 | 1011.0 |
| 20260905033535 | 77 | 277 | 0.0 | 0.0 | 0.00 | 0.00 | 0.00 | 93 | 1011.1 |
| 20260905033034 | 77 | 277 | 0.0 | 0.0 | 0.00 | 0.00 | 0.00 | 93 | 1011.2 |
| 20260905032534 | 76 | 277 | 0.0 | 0.0 | 0.00 | 0.00 | 0.00 | 92 | 1011.2 |
| 20260905032134 | 77 | 277 | 0.0 | 0.0 | 0.00 | 0.00 | 0.00 | 92 | 1011.1 |
| 20260905031535 | 77 | 277 | 0.0 | 0.0 | 0.00 | 0.00 | 0.00 | 92 | 1011.1 |
| 20260905031033 | 77 | 277 | 0.0 | 0.0 | 0.00 | 0.00 | 0.00 | 92 | 1011.0 |
| 20260905030533 | 77 | 277 | 0.0 | 0.0 | 0.00 | 0.00 | 0.00 | 92 | 1011.1 |
| 20260905030033 | 77 | 277 | 0.0 | 0.0 | 0.00 | 0.00 | 0.00 | 92 | 1011.1 |
| 20260905025535 | 77 | 277 | 0.0 | 0.0 | 0.00 | 0.00 | 0.00 | 92 | 1011.0 |
| 20260905025034 | 77 | 277 | 0.0 | 0.0 | 0.00 | 0.00 | 0.00 | 91 | 1011.0 |
| 20260905024533 | 77 | 277 | 0.0 | 0.0 | 0.00 | 0.00 | 0.00 | 92 | 1011.0 |
| 20260905024032 | 77 | 277 | 0.0 | 0.0 | 0.00 | 0.00 | 0.00 | 91 | 1010.9 |
| 20260905023532 | 77 | 277 | 0.0 | 0.0 | 0.00 | 0.00 | 0.00 | 91 | 1010.8 |
| 20260905023033 | 78 | 277 | 0.0 | 0.0 | 0.00 | 0.00 | 0.00 | 91 | 1010.7 |
| 20260905022536 | 78 | 277 | 0.0 | 0.0 | 0.00 | 0.00 | 0.00 | 91 | 1010.7 |
| 20260905022032 | 78 | 277 | 0.0 | 0.0 | 0.00 | 0.00 | 0.00 | 90 | 1010.7 |
| 20260905021535 | 78 | 277 | 0.0 | 0.0 | 0.00 | 0.00 | 0.00 | 90 | 1010.8 |
| 20260905021031 | 78 | 277 | 0.0 | 0.0 | 0.00 | 0.00 | 0.00 | 90 | 1010.7 |
| 20260905020533 | 78 | 277 | 0.0 | 0.0 | 0.00 | 0.00 | 0.00 | 90 | 1010.7 |
| 20260905020033 | 79 | 277 | 0.0 | 0.0 | 0.00 | 0.00 | 0.00 | 90 | 1010.7 |
| 20260905015535 | 79 | 277 | 0.0 | 0.0 | 0.00 | 0.00 | 0.00 | 90 | 1010.5 |
| 20260905015031 | 79 | 277 | 0.0 | 0.0 | 0.00 | 0.00 | 0.00 | 90 | 1010.4 |
| 20260905014530 | 79 | 277 | 0.0 | 0.0 | 0.00 | 0.00 | 0.00 | 90 | 1010.4 |
| 20260905014031 | 79 | 277 | 0.0 | 0.0 | 0.00 | 0.00 | 0.00 | 89 | 1010.3 |
| 20260905013534 | 79 | 277 | 0.0 | 0.0 | 0.00 | 0.00 | 0.00 | 89 | 1010.2 |
| 20260905013030 | 79 | 277 | 0.0 | 0.0 | 0.00 | 0.00 | 0.00 | 88 | 1010.0 |
| 20260905012532 | 80 | 277 | 0.0 | 0.0 | 0.00 | 0.00 | 0.00 | 87 | 1009.9 |
| 20260905012030 | 81 | 277 | 0.0 | 0.0 | 0.00 | 0.00 | 0.00 | 87 | 1009.9 |
| 20260905011530 | 81 | 277 | 0.0 | 0.0 | 0.00 | 0.00 | 0.00 | 86 | 1010.0 |
| 20260905011030 | 82 | 277 | 0.0 | 0.0 | 0.00 | 0.00 | 0.00 | 86 | 1010.0 |
| 20260905010530 | 82 | 277 | 0.0 | 0.0 | 0.00 | 0.00 | 0.00 | 85 | 1010.0 |
| 20260905010029 | 83 | 277 | 0.0 | 0.0 | 0.00 | 0.00 | 0.00 | 85 | 1010.0 |
| 20260905005529 | 83 | 277 | 0.0 | 0.0 | 0.00 | 0.00 | 0.00 | 84 | 1010.1 |
| 20260905005029 | 84 | 277 | 0.0 | 0.0 | 0.00 | 0.00 | 0.00 | 84 | 1009.9 |
| 20260905004530 | 84 | 277 | 0.0 | 0.0 | 0.00 | 0.00 | 0.00 | 83 | 1009.9 |
| 20260905004029 | 84 | 277 | 0.0 | 0.0 | 0.00 | 0.00 | 0.00 | 82 | 1009.9 |
| 20260905003533 | 85 | 277 | 0.0 | 0.0 | 0.00 | 0.00 | 0.00 | 81 | 1009.8 |
| 20260905003029 | 86 | 277 | 0.0 | 0.0 | 0.00 | 0.00 | 0.00 | 80 | 1009.9 |
| 20260905002528 | 87 | 277 | 0.0 | 0.0 | 0.00 | 0.00 | 0.00 | 78 | 1009.8 |
| 20260905002031 | 88 | 277 | 0.0 | 0.0 | 0.00 | 0.00 | 0.00 | 77 | 1009.8 |
| 20260905001528 | 90 | 277 | 0.0 | 0.0 | 0.00 | 0.00 | 0.00 | 75 | 1009.8 |
| 20260905001028 | 91 | 277 | 0.0 | 0.0 | 0.00 | 0.00 | 0.00 | 73 | 1009.9 |
| 20260905000528 | 91 | 277 | 0.0 | 0.0 | 0.00 | 0.00 | 0.00 | 69 | 1009.9 |
| 20260905000028 | 91 | 277 | 0.0 | 0.0 | 0.00 | 0.00 | 0.00 | 68 | 1009.9 |
| 20260904235527 | 92 | 277 | 0.0 | 0.0 | 0.00 | 0.00 | 0.00 | 68 | 1009.9 |
| 20260904235027 | 92 | 277 | 0.0 | 0.0 | 0.00 | 0.00 | 0.00 | 67 | 1009.9 |
| 20260904234527 | 92 | 277 | 0.0 | 0.0 | 0.00 | 0.00 | 0.00 | 68 | 1009.9 |
| 20260904234027 | 93 | 277 | 0.0 | 0.0 | 0.00 | 0.00 | 0.00 | 69 | 1009.9 |
| 20260904233528 | 93 | 277 | 0.0 | 1.0 | 0.00 | 0.00 | 0.00 | 68 | 1009.9 |
| 20260904233027 | 93 | 277 | 0.0 | 1.0 | 0.00 | 0.00 | 0.00 | 66 | 1009.9 |
| 20260904232526 | 93 | 277 | 0.0 | 1.0 | 0.00 | 0.00 | 0.00 | 66 | 1009.8 |
| 20260904232027 | 94 | 277 | 0.0 | 2.0 | 0.00 | 0.00 | 0.00 | 66 | 1009.8 |
| 20260904231526 | 94 | 277 | 0.0 | 2.0 | 0.00 | 0.00 | 0.00 | 66 | 1009.9 |
| 20260904231026 | 94 | 246 | 0.0 | 2.0 | 0.00 | 0.00 | 0.00 | 66 | 1009.9 |
| 20260904230526 | 94 | 271 | 0.0 | 3.0 | 0.00 | 0.00 | 0.00 | 68 | 1010.0 |
| 20260904230027 | 93 | 304 | 0.0 | 3.0 | 0.00 | 0.00 | 0.00 | 67 | 1009.9 |
| 20260904225525 | 93 | 301 | 0.0 | 4.0 | 0.00 | 0.00 | 0.00 | 68 | 1010.0 |
| 20260904225025 | 93 | 292 | 1.0 | 4.0 | 0.00 | 0.00 | 0.00 | 66 | 1010.1 |
| 20260904224525 | 92 | 287 | 0.0 | 2.0 | 0.00 | 0.00 | 0.00 | 68 | 1010.0 |
| 20260904224025 | 92 | 254 | 0.0 | 2.0 | 0.00 | 0.00 | 0.00 | 68 | 1010.0 |
| 20260904223526 | 92 | 254 | 0.0 | 2.0 | 0.00 | 0.00 | 0.00 | 68 | 1009.8 |
| 20260904223025 | 92 | 254 | 0.0 | 3.0 | 0.00 | 0.00 | 0.00 | 67 | 1009.8 |
| 20260904222530 | 93 | 257 | 0.0 | 6.0 | 0.00 | 0.00 | 0.00 | 66 | 1009.8 |
| 20260904222025 | 93 | 240 | 1.0 | 6.0 | 0.00 | 0.00 | 0.00 | 65 | 1009.8 |
| 20260904221523 | 93 | 229 | 1.0 | 8.0 | 0.00 | 0.00 | 0.00 | 64 | 1009.7 |
| 20260904221024 | 94 | 204 | 5.0 | 8.0 | 0.00 | 0.00 | 0.00 | 61 | 1009.7 |
| 20260904220524 | 95 | 205 | 1.0 | 7.0 | 0.00 | 0.00 | 0.00 | 64 | 1009.6 |
| 20260904220023 | 95 | 213 | 3.0 | 7.0 | 0.00 | 0.00 | 0.00 | 60 | 1009.6 |
| 20260904215523 | 95 | 236 | 2.0 | 5.0 | 0.00 | 0.00 | 0.00 | 61 | 1009.7 |
| 20260904215021 | 95 | 206 | 2.0 | 6.0 | 0.00 | 0.00 | 0.00 | 61 | 1009.8 |
| 20260904214521 | 95 | 213 | 3.0 | 6.0 | 0.00 | 0.00 | 0.00 | 61 | 1009.9 |
| 20260904214023 | 95 | 238 | 2.0 | 5.0 | 0.00 | 0.00 | 0.00 | 60 | 1009.8 |
| 20260904213525 | 94 | 255 | 1.0 | 7.0 | 0.00 | 0.00 | 0.00 | 65 | 1009.9 |
| 20260904213022 | 94 | 213 | 2.0 | 8.0 | 0.00 | 0.00 | 0.00 | 63 | 1010.0 |
| 20260904212520 | 95 | 213 | 4.0 | 8.0 | 0.00 | 0.00 | 0.00 | 61 | 1009.9 |
| 20260904212020 | 95 | 209 | 5.0 | 9.0 | 0.00 | 0.00 | 0.00 | 61 | 1009.9 |
| 20260904211517 | 95 | 163 | 2.0 | 7.0 | 0.00 | 0.00 | 0.00 | 64 | 1010.0 |
| 20260904211017 | 95 | 211 | 4.0 | 7.0 | 0.00 | 0.00 | 0.00 | 63 | 1010.1 |
| 20260904210517 | 95 | 175 | 2.0 | 6.0 | 0.00 | 0.00 | 0.00 | 62 | 1010.1 |
| 20260904210017 | 95 | 200 | 1.0 | 7.0 | 0.00 | 0.00 | 0.00 | 62 | 1010.1 |
| 20260904205516 | 95 | 187 | 3.0 | 7.0 | 0.00 | 0.00 | 0.00 | 62 | 1010.2 |
| 20260904205015 | 96 | 161 | 1.0 | 6.0 | 0.00 | 0.00 | 0.00 | 61 | 1010.3 |
| 20260904204517 | 95 | 178 | 1.0 | 6.0 | 0.00 | 0.00 | 0.00 | 60 | 1010.3 |
| 20260904204013 | 95 | 215 | 0.0 | 7.0 | 0.00 | 0.00 | 0.00 | 61 | 1010.3 |
| 20260904203512 | 94 | 175 | 2.0 | 7.0 | 0.00 | 0.00 | 0.00 | 63 | 1010.3 |
| 20260904203013 | 94 | 153 | 3.0 | 6.0 | 0.00 | 0.00 | 0.00 | 62 | 1010.4 |
| 20260904202512 | 94 | 217 | 0.0 | 6.0 | 0.00 | 0.00 | 0.00 | 64 | 1010.5 |
| 20260904202009 | 94 | 188 | 2.0 | 6.0 | 0.00 | 0.00 | 0.00 | 64 | 1010.6 |
| 20260904201509 | 94 | 141 | 2.0 | 7.0 | 0.00 | 0.00 | 0.00 | 62 | 1010.6 |
| 20260904201009 | 94 | 205 | 2.0 | 7.0 | 0.00 | 0.00 | 0.00 | 64 | 1010.6 |
| 20260904200508 | 94 | 152 | 4.0 | 8.0 | 0.00 | 0.00 | 0.00 | 66 | 1010.6 |
| 20260904200008 | 94 | 117 | 2.0 | 8.0 | 0.00 | 0.00 | 0.00 | 62 | 1010.7 |
| 20260904195510 | 94 | 24 | 2.0 | 4.0 | 0.00 | 0.00 | 0.00 | 62 | 1010.8 |
| 20260904195008 | 94 | 279 | 0.0 | 6.0 | 0.00 | 0.00 | 0.00 | 61 | 1010.8 |
| 20260904194506 | 94 | 125 | 1.0 | 6.0 | 0.00 | 0.00 | 0.00 | 59 | 1010.9 |
| 20260904194006 | 94 | 119 | 0.0 | 3.0 | 0.00 | 0.00 | 0.00 | 62 | 1011.0 |
| 20260904193507 | 94 | 144 | 0.0 | 3.0 | 0.00 | 0.00 | 0.00 | 61 | 1011.1 |
| 20260904193010 | 93 | 134 | 0.0 | 4.0 | 0.00 | 0.00 | 0.00 | 60 | 1011.1 |
| 20260904192505 | 93 | 134 | 2.0 | 6.0 | 0.00 | 0.00 | 0.00 | 61 | 1011.2 |
| 20260904192004 | 93 | 96 | 0.0 | 6.0 | 0.00 | 0.00 | 0.00 | 60 | 1011.3 |
| 20260904191504 | 93 | 93 | 2.0 | 6.0 | 0.00 | 0.00 | 0.00 | 64 | 1011.4 |
| 20260904191004 | 93 | 37 | 1.0 | 4.0 | 0.00 | 0.00 | 0.00 | 64 | 1011.5 |
| 20260904190504 | 93 | 123 | 1.0 | 4.0 | 0.00 | 0.00 | 0.00 | 65 | 1011.4 |
| 20260904190004 | 93 | 117 | 0.0 | 6.0 | 0.00 | 0.00 | 0.00 | 63 | 1011.6 |
| 20260904185503 | 92 | 130 | 1.0 | 6.0 | 0.00 | 0.00 | 0.00 | 67 | 1011.7 |
| 20260904185003 | 92 | 42 | 0.0 | 6.0 | 0.00 | 0.00 | 0.00 | 63 | 1011.7 |
| 20260904184505 | 92 | 83 | 2.0 | 6.0 | 0.00 | 0.00 | 0.00 | 63 | 1011.7 |
| 20260904184004 | 92 | 127 | 1.0 | 8.0 | 0.00 | 0.00 | 0.00 | 65 | 1011.8 |
| 20260904183507 | 92 | 109 | 2.0 | 8.0 | 0.00 | 0.00 | 0.00 | 63 | 1011.9 |
| 20260904183003 | 92 | 92 | 2.0 | 8.0 | 0.00 | 0.00 | 0.00 | 67 | 1012.2 |
| 20260904182507 | 92 | 42 | 4.0 | 8.0 | 0.00 | 0.00 | 0.00 | 64 | 1012.2 |
| 20260904182002 | 92 | 47 | 2.0 | 9.0 | 0.00 | 0.00 | 0.00 | 65 | 1012.3 |
| 20260904181508 | 92 | 39 | 4.0 | 9.0 | 0.00 | 0.00 | 0.00 | 65 | 1012.3 |
| 20260904181004 | 92 | 51 | 5.0 | 8.0 | 0.00 | 0.00 | 0.00 | 64 | 1012.5 |
| 20260904180504 | 92 | 342 | 4.0 | 7.0 | 0.00 | 0.00 | 0.00 | 67 | 1012.6 |
| 20260904180002 | 92 | 59 | 3.0 | 7.0 | 0.00 | 0.00 | 0.00 | 66 | 1012.7 |
| 20260904175502 | 92 | 28 | 3.0 | 8.0 | 0.00 | 0.00 | 0.00 | 65 | 1012.8 |
| 20260904175002 | 92 | 313 | 4.0 | 8.0 | 0.00 | 0.00 | 0.00 | 64 | 1012.7 |
| 20260904174502 | 92 | 5 | 3.0 | 8.0 | 0.00 | 0.00 | 0.00 | 65 | 1012.8 |
| 20260904174003 | 92 | 25 | 4.0 | 10.0 | 0.00 | 0.00 | 0.00 | 65 | 1012.9 |
| 20260904173502 | 92 | 15 | 6.0 | 10.0 | 0.00 | 0.00 | 0.00 | 65 | 1012.9 |
| 20260904173004 | 91 | 23 | 5.0 | 9.0 | 0.00 | 0.00 | 0.00 | 66 | 1012.9 |
| 20260904172501 | 92 | 13 | 5.0 | 8.0 | 0.00 | 0.00 | 0.00 | 64 | 1012.9 |
| 20260904172002 | 93 | 360 | 5.0 | 8.0 | 0.00 | 0.00 | 0.00 | 63 | 1012.8 |
| 20260904171501 | 93 | 30 | 2.0 | 6.0 | 0.00 | 0.00 | 0.00 | 63 | 1012.8 |
| 20260904171059 | 93 | 317 | 1.0 | 6.0 | 0.00 | 0.00 | 0.00 | 66 | 1012.8 |
| 20260904170559 | 93 | 350 | 3.0 | 6.0 | 0.00 | 0.00 | 0.00 | 64 | 1012.8 |
| 20260904170059 | 93 | 5 | 3.0 | 6.0 | 0.00 | 0.00 | 0.00 | 64 | 1012.9 |
| 20260904165559 | 93 | 302 | 1.0 | 6.0 | 0.00 | 0.00 | 0.00 | 65 | 1012.8 |
| 20260904165059 | 93 | 300 | 2.0 | 7.0 | 0.00 | 0.00 | 0.00 | 63 | 1012.8 |
| 20260904164615 | 93 | 300 | 2.0 | 7.0 | 0.00 | 0.00 | 0.00 | 67 | 1012.8 |
| 20260904164057 | 93 | 13 | 0.0 | 5.0 | 0.00 | 0.00 | 0.00 | 67 | 1012.7 |
| 20260904163556 | 92 | 251 | 2.0 | 5.0 | 0.00 | 0.00 | 0.00 | 65 | 1012.7 |